WC1Z Weather Reports


Display with metric or nautical units.
time (UTC)temp
F
wind
direction
speed
MPH
gust
MPH
rain 1hr
in
rain 24hr
in
rain mn
in
humidity
%
barometer
mb
20260901043700 81 360 0.0 0.0 0.00 0.00 0.00 75 1015.8
20260901043200 81 360 0.0 0.0 0.00 0.00 0.00 75 1015.9
20260901042700 81 360 0.0 0.0 0.00 0.00 0.00 74 1015.8
20260901042200 81 360 0.0 0.0 0.00 0.00 0.00 74 1015.8
20260901041701 81 360 0.0 0.0 0.00 0.00 0.00 74 1015.9
20260901041200 80 203 0.0 0.0 0.00 0.00 0.00 74 1015.8
20260901040701 80 360 0.0 0.0 0.00 0.00 0.00 75 1015.7
20260901040200 79 360 0.0 0.0 0.00 0.00 0.00 76 1015.7
20260901035701 79 360 0.0 0.0 0.00 0.00 0.00 76 1015.7
20260901035203 79 360 0.0 0.0 0.00 0.00 0.00 77 1015.6
20260901034702 79 246 0.0 1.0 0.00 0.00 0.00 77 1015.5
20260901034202 79 360 0.0 0.0 0.00 0.00 0.00 77 1015.5
20260901033701 79 149 0.0 1.0 0.00 0.00 0.00 76 1015.5
20260901033257 79 360 0.0 0.0 0.00 0.00 0.00 76 1015.5
20260901032700 79 360 0.0 0.0 0.00 0.00 0.00 75 1015.4
20260901032201 80 160 0.0 0.0 0.00 0.00 0.00 75 1015.3
20260901031700 80 360 0.0 0.0 0.00 0.00 0.00 74 1015.3
20260901031200 80 360 0.0 0.0 0.00 0.00 0.00 74 1015.3
20260901030701 80 360 0.0 0.0 0.00 0.00 0.00 74 1015.3
20260901030200 80 360 0.0 0.0 0.00 0.00 0.00 72 1015.2
20260901025701 80 360 0.0 0.0 0.00 0.00 0.00 72 1015.2
20260901025200 81 360 0.0 0.0 0.00 0.00 0.00 72 1015.2
20260901024700 81 360 0.0 0.0 0.00 0.00 0.00 72 1015.1
20260901024202 81 360 0.0 0.0 0.00 0.00 0.00 71 1015.1
20260901023700 82 360 0.0 0.0 0.00 0.00 0.00 71 1015.0
20260901023200 82 360 0.0 0.0 0.00 0.00 0.00 70 1014.9
20260901022702 82 360 0.0 0.0 0.00 0.00 0.00 70 1014.8
20260901022200 83 360 0.0 0.0 0.00 0.00 0.00 69 1014.8
20260901021700 83 360 0.0 0.0 0.00 0.00 0.00 68 1014.8
20260901021200 83 360 0.0 0.0 0.00 0.00 0.00 67 1014.8
20260901020701 84 360 0.0 0.0 0.00 0.00 0.00 67 1014.8
20260901020200 84 360 0.0 0.0 0.00 0.00 0.00 66 1014.7
20260901015701 85 360 0.0 0.0 0.00 0.00 0.00 66 1014.6
20260901015200 85 360 0.0 0.0 0.00 0.00 0.00 64 1014.6
20260901014700 86 360 0.0 0.0 0.00 0.00 0.00 63 1014.5
20260901014203 86 360 0.0 0.0 0.00 0.00 0.00 63 1014.5
20260901013700 87 360 0.0 0.0 0.00 0.00 0.00 60 1014.6
20260901013202 88 360 0.0 0.0 0.00 0.00 0.00 59 1014.6
20260901012700 88 360 0.0 0.0 0.00 0.00 0.00 58 1014.5
20260901012201 89 360 0.0 0.0 0.00 0.00 0.00 58 1014.6
20260901011700 89 360 0.0 0.0 0.00 0.00 0.00 55 1014.5
20260901011200 90 360 0.0 0.0 0.00 0.00 0.00 55 1014.5
20260901010701 90 94 1.0 2.0 0.00 0.00 0.00 54 1014.5
20260901010200 91 360 0.0 0.0 0.00 0.00 0.00 54 1014.4
20260901005700 91 124 1.0 2.0 0.00 0.00 0.00 53 1014.4
20260901005201 91 107 0.0 2.0 0.00 0.00 0.00 52 1014.4
20260901004701 92 113 3.0 4.0 0.00 0.00 0.00 52 1014.4
20260901004200 92 88 1.0 3.0 0.00 0.00 0.00 51 1014.3
20260901003700 93 103 2.0 4.0 0.00 0.00 0.00 50 1014.2
20260901003200 93 108 2.0 5.0 0.00 0.00 0.00 50 1014.2
20260901002700 93 128 2.0 6.0 0.00 0.00 0.00 49 1014.2
20260901002200 94 115 3.0 4.0 0.00 0.00 0.00 49 1014.3
20260901001701 94 108 5.0 8.0 0.00 0.00 0.00 48 1014.3
20260901001200 94 118 3.0 4.0 0.00 0.00 0.00 48 1014.3
20260901000701 95 148 3.0 6.0 0.00 0.00 0.00 48 1014.3
20260901000201 95 158 3.0 4.0 0.00 0.00 0.00 47 1014.3
20260831235701 95 132 3.0 5.0 0.00 0.00 0.00 46 1014.3
20260831235200 95 107 5.0 8.0 0.00 0.00 0.00 46 1014.2
20260831234701 95 142 3.0 5.0 0.00 0.00 0.00 45 1014.2
20260831234200 95 107 3.0 5.0 0.00 0.00 0.00 45 1014.2
20260831233701 96 128 4.0 6.0 0.00 0.00 0.00 45 1014.2
20260831233200 96 128 3.0 5.0 0.00 0.00 0.00 45 1014.2
20260831232700 96 120 3.0 5.0 0.00 0.00 0.00 45 1014.2
20260831232200 96 152 1.0 3.0 0.00 0.00 0.00 45 1014.3
20260831231700 96 103 6.0 8.0 0.00 0.00 0.00 45 1014.1
20260831231201 96 91 6.0 9.0 0.00 0.00 0.00 45 1014.0
20260831230700 96 66 4.0 8.0 0.00 0.00 0.00 45 1014.0
20260831230200 96 130 3.0 4.0 0.00 0.00 0.00 45 1014.0
20260831225700 96 95 3.0 6.0 0.00 0.00 0.00 45 1014.0
20260831225201 96 119 4.0 8.0 0.00 0.00 0.00 44 1014.0
20260831224701 96 115 4.0 6.0 0.00 0.00 0.00 45 1014.1
20260831224200 96 187 4.0 5.0 0.00 0.00 0.00 45 1014.1
20260831223701 96 119 4.0 7.0 0.00 0.00 0.00 45 1014.1
20260831223200 96 88 7.0 9.0 0.00 0.00 0.00 45 1014.1
20260831222701 96 76 8.0 9.0 0.00 0.00 0.00 45 1014.1
20260831222201 96 132 5.0 7.0 0.00 0.00 0.00 46 1014.1
20260831221701 96 113 4.0 6.0 0.00 0.00 0.00 46 1014.1
20260831221202 96 115 4.0 6.0 0.00 0.00 0.00 46 1014.2
20260831220701 95 165 5.0 11.0 0.00 0.00 0.00 47 1014.3
20260831220201 95 117 4.0 6.0 0.00 0.00 0.00 47 1014.3
20260831215702 95 109 4.0 7.0 0.00 0.00 0.00 47 1014.3
20260831215201 94 117 4.0 7.0 0.00 0.00 0.00 47 1014.4
20260831214701 94 91 5.0 7.0 0.00 0.00 0.00 48 1014.4
20260831214201 94 85 2.0 4.0 0.00 0.00 0.00 48 1014.4
20260831213701 94 102 3.0 4.0 0.00 0.00 0.00 48 1014.5
20260831212729 95 103 5.0 7.0 0.00 0.00 0.00 48 1014.5
20260831212200 95 86 5.0 8.0 0.00 0.00 0.00 48 1014.6
20260831211701 95 72 4.0 7.0 0.00 0.00 0.00 48 1014.5
20260831211201 95 114 8.0 11.0 0.00 0.00 0.00 48 1014.6
20260831210701 95 95 6.0 8.0 0.00 0.00 0.00 47 1014.7
20260831210200 94 88 3.0 6.0 0.00 0.00 0.00 49 1014.8
20260831205700 94 125 2.0 4.0 0.00 0.00 0.00 50 1014.9
20260831205201 94 84 3.0 5.0 0.00 0.00 0.00 50 1015.0
20260831204701 94 104 7.0 10.0 0.00 0.00 0.00 49 1015.0
20260831204201 95 88 6.0 9.0 0.00 0.00 0.00 48 1015.0
20260831203701 95 82 6.0 7.0 0.00 0.00 0.00 48 1015.0
20260831203201 95 345 4.0 5.0 0.00 0.00 0.00 48 1015.0
20260831202700 94 309 3.0 5.0 0.00 0.00 0.00 49 1015.1
20260831202200 94 26 4.0 6.0 0.00 0.00 0.00 49 1015.2
20260831201701 94 69 3.0 5.0 0.00 0.00 0.00 49 1015.3
20260831201201 94 122 3.0 4.0 0.00 0.00 0.00 49 1015.4
20260831200701 94 116 3.0 4.0 0.00 0.00 0.00 49 1015.4
20260831200200 94 103 3.0 5.0 0.00 0.00 0.00 50 1015.5
20260831195700 94 93 5.0 8.0 0.00 0.00 0.00 50 1015.5
20260831195200 95 29 2.0 5.0 0.00 0.00 0.00 49 1015.5
20260831194701 94 58 4.0 6.0 0.00 0.00 0.00 49 1015.6
20260831194200 93 70 4.0 6.0 0.00 0.00 0.00 51 1015.7
20260831193701 93 116 4.0 6.0 0.00 0.00 0.00 51 1015.8
20260831193200 93 66 2.0 3.0 0.00 0.00 0.00 51 1015.8
20260831192700 93 103 4.0 5.0 0.00 0.00 0.00 51 1015.9
20260831192202 93 77 5.0 7.0 0.00 0.00 0.00 51 1016.0
20260831191702 93 86 3.0 5.0 0.00 0.00 0.00 51 1016.0
20260831191204 94 119 4.0 5.0 0.00 0.00 0.00 51 1016.0
20260831190702 94 93 7.0 10.0 0.00 0.00 0.00 51 1016.0
20260831190201 94 123 5.0 8.0 0.00 0.00 0.00 51 1016.0
20260831185701 94 64 5.0 8.0 0.00 0.00 0.00 51 1016.1
20260831185200 93 112 4.0 6.0 0.00 0.00 0.00 52 1016.2
20260831184701 93 122 5.0 9.0 0.00 0.00 0.00 52 1016.2
20260831184200 94 130 3.0 7.0 0.00 0.00 0.00 52 1016.3
20260831183701 95 98 7.0 10.0 0.00 0.00 0.00 52 1016.4
20260831183204 95 120 5.0 7.0 0.00 0.00 0.00 50 1016.5
20260831182702 94 116 3.0 5.0 0.00 0.00 0.00 52 1016.6
20260831182200 94 64 6.0 9.0 0.00 0.00 0.00 52 1016.6
20260831181700 94 144 4.0 6.0 0.00 0.00 0.00 52 1016.7
20260831181201 94 81 5.0 10.0 0.00 0.00 0.00 51 1016.7
20260831180701 94 159 4.0 9.0 0.00 0.00 0.00 52 1016.7
20260831180200 93 133 5.0 8.0 0.00 0.00 0.00 52 1016.7
20260831175701 93 67 7.0 9.0 0.00 0.00 0.00 52 1016.8
20260831175200 93 67 3.0 6.0 0.00 0.00 0.00 52 1016.9
20260831174701 93 84 8.0 10.0 0.00 0.00 0.00 53 1017.0
20260831174200 93 58 5.0 11.0 0.00 0.00 0.00 53 1017.1
20260831173701 93 125 4.0 6.0 0.00 0.00 0.00 54 1017.2
20260831173201 93 114 3.0 8.0 0.00 0.00 0.00 53 1017.2
20260831172700 93 86 6.0 9.0 0.00 0.00 0.00 53 1017.3
20260831172200 92 106 5.0 7.0 0.00 0.00 0.00 52 1017.3
20260831171701 91 181 3.0 6.0 0.00 0.00 0.00 53 1017.4
20260831171201 91 225 3.0 4.0 0.00 0.00 0.00 58 1017.5
20260831170701 91 290 2.0 3.0 0.00 0.00 0.00 57 1017.6
20260831170200 91 358 3.0 5.0 0.00 0.00 0.00 58 1017.7
20260831165702 91 326 1.0 4.0 0.00 0.00 0.00 60 1017.7
20260831165201 91 285 2.0 3.0 0.00 0.00 0.00 59 1017.7
20260831164705 91 129 5.0 6.0 0.00 0.00 0.00 58 1017.7
20260831164201 91 57 1.0 5.0 0.00 0.00 0.00 59 1017.7
20260831163700 90 90 4.0 6.0 0.00 0.00 0.00 59 1017.9
20260831163203 90 153 3.0 4.0 0.00 0.00 0.00 60 1017.9
20260831162701 89 330 2.0 3.0 0.00 0.00 0.00 60 1018.0
20260831162201 89 305 1.0 2.0 0.00 0.00 0.00 61 1018.1
20260831161702 89 174 2.0 3.0 0.00 0.00 0.00 61 1018.1
20260831161201 89 227 2.0 2.0 0.00 0.00 0.00 62 1018.1
20260831160702 89 360 0.0 0.0 0.00 0.00 0.00 61 1018.1
20260831160201 89 146 0.0 1.0 0.00 0.00 0.00 62 1018.1
20260831155701 89 123 3.0 3.0 0.00 0.00 0.00 61 1018.2
20260831155201 89 203 2.0 3.0 0.00 0.00 0.00 62 1018.2
20260831154700 89 329 0.0 3.0 0.00 0.00 0.00 63 1018.2
20260831154200 89 172 6.0 7.0 0.00 0.00 0.00 62 1018.1
20260831153701 89 152 4.0 5.0 0.00 0.00 0.00 62 1018.1
20260831153201 88 156 1.0 2.0 0.00 0.00 0.00 62 1018.1
20260831152701 88 223 1.0 3.0 0.00 0.00 0.00 63 1018.1
20260831152201 88 251 4.0 5.0 0.00 0.00 0.00 62 1018.0
20260831151701 87 178 5.0 6.0 0.00 0.00 0.00 62 1018.0
20260831151201 87 308 2.0 3.0 0.00 0.00 0.00 62 1018.0
20260831150701 86 191 3.0 4.0 0.00 0.00 0.00 61 1017.9
20260831150201 86 273 3.0 5.0 0.00 0.00 0.00 67 1017.9
20260831145701 85 233 4.0 6.0 0.00 0.00 0.00 68 1017.9
20260831145203 85 233 3.0 4.0 0.00 0.00 0.00 69 1017.9
20260831144703 85 280 0.0 2.0 0.00 0.00 0.00 70 1017.9
20260831144201 85 305 0.0 1.0 0.00 0.00 0.00 71 1017.9
20260831143701 85 122 0.0 2.0 0.00 0.00 0.00 72 1017.8
20260831143201 85 123 1.0 2.0 0.00 0.00 0.00 71 1017.8
20260831142701 84 360 0.0 0.0 0.00 0.00 0.00 73 1017.8
20260831142201 83 173 3.0 3.0 0.00 0.00 0.00 74 1017.7
20260831141701 83 166 0.0 2.0 0.00 0.00 0.00 75 1017.8
20260831141201 83 175 2.0 4.0 0.00 0.00 0.00 76 1017.8
20260831140700 83 169 4.0 5.0 0.00 0.00 0.00 75 1017.7
20260831140201 83 162 2.0 3.0 0.00 0.00 0.00 75 1017.7
20260831135701 83 182 2.0 3.0 0.00 0.00 0.00 76 1017.7
20260831135200 82 180 1.0 3.0 0.00 0.00 0.00 74 1017.7
20260831134706 81 173 1.0 2.0 0.00 0.00 0.00 76 1017.6
20260831134203 81 194 0.0 2.0 0.00 0.00 0.00 77 1017.5
20260831133701 80 163 0.0 0.0 0.00 0.00 0.00 78 1017.6
20260831133201 80 175 2.0 3.0 0.00 0.00 0.00 77 1017.5
20260831132700 80 178 1.0 2.0 0.00 0.00 0.00 77 1017.3
20260831132200 79 190 0.0 2.0 0.00 0.00 0.00 77 1017.3
20260831131701 78 143 1.0 2.0 0.00 0.00 0.00 79 1017.3
20260831131201 78 186 0.0 2.0 0.00 0.00 0.00 80 1017.3
20260831130700 77 83 0.0 2.0 0.00 0.00 0.00 81 1017.2
20260831130201 76 83 0.0 1.0 0.00 0.00 0.00 83 1017.1
20260831125700 76 90 0.0 2.0 0.00 0.00 0.00 85 1017.1
20260831125201 75 117 0.0 2.0 0.00 0.00 0.00 87 1017.0
20260831124707 74 100 1.0 2.0 0.00 0.00 0.00 88 1016.9
20260831124201 73 360 0.0 0.0 0.00 0.00 0.00 89 1016.8
20260831123701 73 91 0.0 0.0 0.00 0.00 0.00 90 1016.7
20260831123200 73 360 0.0 0.0 0.00 0.00 0.00 91 1016.5
20260831122700 72 360 0.0 0.0 0.00 0.00 0.00 91 1016.5
20260831122200 71 360 0.0 0.0 0.00 0.00 0.00 91 1016.5
20260831121701 71 360 0.0 0.0 0.00 0.00 0.00 91 1016.4
20260831121201 71 360 0.0 0.0 0.00 0.00 0.00 91 1016.4
20260831120701 71 360 0.0 0.0 0.00 0.00 0.00 91 1016.3
20260831120200 71 360 0.0 0.0 0.00 0.00 0.00 90 1016.3
20260831115700 71 360 0.0 0.0 0.00 0.00 0.00 90 1016.2
20260831115200 71 360 0.0 0.0 0.00 0.00 0.00 90 1016.2
20260831114700 71 134 0.0 0.0 0.00 0.00 0.00 90 1016.1
20260831114201 71 360 0.0 0.0 0.00 0.00 0.00 90 1016.0
20260831113701 71 360 0.0 0.0 0.00 0.00 0.00 90 1016.0
20260831113201 71 360 0.0 0.0 0.00 0.00 0.00 90 1016.0
20260831112701 71 360 0.0 0.0 0.00 0.00 0.00 90 1015.9
20260831112200 71 360 0.0 0.0 0.00 0.00 0.00 89 1015.8
20260831111702 71 360 0.0 0.0 0.00 0.00 0.00 89 1015.7
20260831111201 71 360 0.0 0.0 0.00 0.00 0.00 89 1015.8
20260831110700 71 360 0.0 0.0 0.00 0.00 0.00 89 1015.8
20260831110202 71 360 0.0 0.0 0.00 0.00 0.00 89 1015.8
20260831105701 71 360 0.0 0.0 0.00 0.00 0.00 89 1015.7
20260831105201 72 360 0.0 0.0 0.00 0.00 0.00 89 1015.7
20260831104701 72 360 0.0 0.0 0.00 0.00 0.00 88 1015.7
20260831104200 72 360 0.0 0.0 0.00 0.00 0.00 88 1015.8
20260831103700 72 360 0.0 0.0 0.00 0.00 0.00 88 1015.8
20260831103200 72 360 0.0 0.0 0.00 0.00 0.00 88 1015.8
20260831102703 72 360 0.0 0.0 0.00 0.00 0.00 87 1015.7
20260831102201 72 162 0.0 0.0 0.00 0.00 0.00 87 1015.8
20260831101702 73 360 0.0 0.0 0.00 0.00 0.00 87 1015.7
20260831101201 73 360 0.0 0.0 0.00 0.00 0.00 87 1015.7
20260831100700 73 360 0.0 0.0 0.00 0.00 0.00 86 1015.7
20260831100201 73 360 0.0 0.0 0.00 0.00 0.00 86 1015.7
20260831095701 73 360 0.0 0.0 0.00 0.00 0.00 86 1015.7
20260831095200 73 360 0.0 0.0 0.00 0.00 0.00 86 1015.7
20260831094700 73 360 0.0 0.0 0.00 0.00 0.00 85 1015.7
20260831094201 74 360 0.0 0.0 0.00 0.00 0.00 85 1015.6
20260831093700 74 360 0.0 0.0 0.00 0.00 0.00 84 1015.6
20260831093200 74 91 1.0 2.0 0.00 0.00 0.00 85 1015.6
20260831092700 74 360 0.0 0.0 0.00 0.00 0.00 84 1015.6
20260831092200 74 161 0.0 0.0 0.00 0.00 0.00 84 1015.6
20260831091700 74 117 0.0 2.0 0.00 0.00 0.00 84 1015.5
20260831091200 74 120 0.0 1.0 0.00 0.00 0.00 83 1015.4
20260831090701 74 119 1.0 2.0 0.00 0.00 0.00 83 1015.5
20260831090201 75 110 0.0 0.0 0.00 0.00 0.00 83 1015.5
20260831085701 75 360 0.0 0.0 0.00 0.00 0.00 82 1015.4
20260831085201 75 360 0.0 0.0 0.00 0.00 0.00 81 1015.5
20260831084701 75 360 0.0 0.0 0.00 0.00 0.00 81 1015.6
20260831084200 76 360 0.0 0.0 0.00 0.00 0.00 81 1015.6
20260831083701 76 360 0.0 0.0 0.00 0.00 0.00 79 1015.6
20260831083304 76 150 0.0 1.0 0.00 0.00 0.00 79 1015.6
20260831082701 76 360 0.0 0.0 0.00 0.00 0.00 78 1015.6
20260831082200 76 360 0.0 0.0 0.00 0.00 0.00 78 1015.6
20260831081701 76 84 0.0 1.0 0.00 0.00 0.00 79 1015.6
20260831081200 76 203 0.0 1.0 0.00 0.00 0.00 79 1015.6
20260831080705 76 360 0.0 0.0 0.00 0.00 0.00 79 1015.6
20260831080200 77 242 0.0 0.0 0.00 0.00 0.00 78 1015.7
20260831075700 77 360 0.0 0.0 0.00 0.00 0.00 78 1015.7
20260831075200 78 360 0.0 0.0 0.00 0.00 0.00 76 1015.7
20260831074700 78 360 0.0 0.0 0.00 0.00 0.00 75 1015.7
20260831074200 78 360 0.0 0.0 0.00 0.00 0.00 75 1015.7
20260831073701 78 360 0.0 0.0 0.00 0.00 0.00 74 1015.7
20260831073200 79 141 0.0 0.0 0.00 0.00 0.00 73 1015.7
20260831072701 78 100 1.0 1.0 0.00 0.00 0.00 73 1015.7
20260831072202 78 360 0.0 0.0 0.00 0.00 0.00 73 1015.7
20260831071700 78 360 0.0 0.0 0.00 0.00 0.00 73 1015.8
20260831071200 78 119 0.0 1.0 0.00 0.00 0.00 73 1015.8
20260831070700 78 360 0.0 0.0 0.00 0.00 0.00 74 1015.8
20260831070201 78 360 0.0 0.0 0.00 0.00 0.00 74 1015.8
20260831065701 78 360 0.0 0.0 0.00 0.00 0.00 74 1015.8
20260831065201 78 360 0.0 0.0 0.00 0.00 0.00 75 1015.8
20260831064701 77 360 0.0 0.0 0.00 0.00 0.00 76 1015.8
20260831064201 78 360 0.0 0.0 0.00 0.00 0.00 77 1015.8
20260831063700 78 360 0.0 0.0 0.00 0.00 0.00 76 1015.8
20260831063201 78 360 0.0 0.0 0.00 0.00 0.00 76 1015.8
20260831062700 79 360 0.0 0.0 0.00 0.00 0.00 76 1015.9
20260831062200 79 360 0.0 0.0 0.00 0.00 0.00 75 1016.0
20260831061701 80 360 0.0 0.0 0.00 0.00 0.00 74 1016.0
20260831061201 80 360 0.0 0.0 0.00 0.00 0.00 73 1015.9
20260831060700 81 360 0.0 0.0 0.00 0.00 0.00 71 1015.9
20260831060201 81 360 0.0 0.0 0.00 0.00 0.00 70 1015.9
20260831055701 81 360 0.0 0.0 0.00 0.00 0.00 70 1015.8
20260831055201 81 105 0.0 0.0 0.00 0.00 0.00 70 1015.9
20260831054701 80 164 0.0 0.0 0.00 0.00 0.00 70 1016.0
20260831054200 80 360 0.0 0.0 0.00 0.00 0.00 71 1016.0
20260831053700 80 211 0.0 1.0 0.00 0.00 0.00 73 1016.1
20260831053201 79 360 0.0 0.0 0.00 0.00 0.00 74 1016.0
20260831052701 79 146 2.0 3.0 0.00 0.00 0.00 73 1016.0
20260831052200 78 92 2.0 2.0 0.00 0.00 0.00 76 1015.9
20260831051700 77 360 0.0 0.0 0.00 0.00 0.00 78 1015.8
20260831051201 78 240 3.0 4.0 0.00 0.00 0.00 78 1015.8
20260831050700 78 360 0.0 0.0 0.00 0.00 0.00 75 1015.7
20260831050202 79 360 0.0 0.0 0.00 0.00 0.00 75 1015.6
20260831045700 79 360 0.0 0.0 0.00 0.00 0.00 75 1015.6
20260831045200 79 360 0.0 0.0 0.00 0.00 0.00 74 1015.6
20260831044700 80 360 0.0 0.0 0.00 0.00 0.00 73 1015.6
20260831044200 80 360 0.0 0.0 0.00 0.00 0.00 73 1015.6